Previsão horária em Ploskoe

Hoje, 5 Março, Sexta-feira

Tempo Temperatura Precipitação Vento Pressão Humidade
00:00 -5°C° 0.3 mm 3 m/s 735 mmHg 96%
01:00 -5°C° 0.1 mm 3 m/s 736 mmHg 96%
02:00 -6°C° 0.1 mm 3 m/s 736 mmHg 96%
03:00 -6°C° 0 mm 3 m/s 736 mmHg 97%
04:00 -7°C° 0 mm 3 m/s 737 mmHg 96%
05:00 -8°C° 0 mm 3 m/s 738 mmHg 96%
06:00 -9°C° 0 mm 3 m/s 738 mmHg 96%
07:00 -9°C° 0 mm 3 m/s 739 mmHg 95%
08:00 -10°C° 0 mm 3 m/s 739 mmHg 94%
09:00 -8°C° 0 mm 2 m/s 740 mmHg 95%
10:00 -8°C° 0 mm 3 m/s 740 mmHg 93%
11:00 -7°C° 0 mm 3 m/s 741 mmHg 91%
12:00 -7°C° 0 mm 4 m/s 741 mmHg 89%
13:00 -5°C° 0 mm 3 m/s 741 mmHg 87%
14:00 -5°C° 0 mm 3 m/s 742 mmHg 86%
15:00 -4°C° 0 mm 3 m/s 742 mmHg 84%
16:00 -5°C° 0 mm 3 m/s 742 mmHg 85%
17:00 -7°C° 0 mm 3 m/s 742 mmHg 86%
18:00 -8°C° 0 mm 3 m/s 743 mmHg 88%
19:00 -9°C° 0 mm 3 m/s 743 mmHg 88%
20:00 -8°C° 0 mm 2 m/s 744 mmHg 88%
21:00 -9°C° 0 mm 2 m/s 744 mmHg 88%
22:00 -10°C° 0 mm 2 m/s 745 mmHg 88%
23:00 -12°C° 0 mm 2 m/s 745 mmHg 87%

Amanhã, 6 Março, Sábado

Tempo Temperatura Precipitação Vento Pressão Humidade
00:00 -10°C° 0 mm 1 m/s 745 mmHg 87%
01:00 -11°C° 0 mm 1 m/s 745 mmHg 87%
02:00 -11°C° 0 mm 1 m/s 746 mmHg 87%
03:00 -11°C° 0 mm 1 m/s 746 mmHg 87%
04:00 -11°C° 0 mm 1 m/s 746 mmHg 87%
05:00 -11°C° 0 mm 1 m/s 746 mmHg 88%
06:00 -11°C° 0 mm 1 m/s 746 mmHg 88%
07:00 -11°C° 0 mm 1 m/s 746 mmHg 89%
08:00 -10°C° 0 mm 1 m/s 746 mmHg 91%
09:00 -9°C° 0 mm 1 m/s 746 mmHg 92%
10:00 -8°C° 0.1 mm 1 m/s 746 mmHg 91%
11:00 -8°C° 0.1 mm 2 m/s 746 mmHg 89%
12:00 -7°C° 0.1 mm 2 m/s 746 mmHg 88%
13:00 -7°C° 0 mm 2 m/s 746 mmHg 87%
14:00 -7°C° 0 mm 2 m/s 746 mmHg 85%
15:00 -6°C° 0 mm 2 m/s 746 mmHg 84%
16:00 -7°C° 0 mm 2 m/s 746 mmHg 85%
17:00 -9°C° 0 mm 3 m/s 746 mmHg 87%
18:00 -10°C° 0 mm 3 m/s 746 mmHg 88%
19:00 -12°C° 0 mm 3 m/s 746 mmHg 88%
20:00 -13°C° 0 mm 3 m/s 746 mmHg 89%
21:00 -14°C° 0 mm 3 m/s 746 mmHg 90%
22:00 -14°C° 0 mm 3 m/s 746 mmHg 89%
23:00 -15°C° 0 mm 3 m/s 746 mmHg 89%

Depois de amanhã, 7 Março, Domingo

Tempo Temperatura Precipitação Vento Pressão Humidade
00:00 -15°C° 0 mm 3 m/s 745 mmHg 89%
01:00 -15°C° 0 mm 3 m/s 745 mmHg 90%
02:00 -16°C° 0 mm 4 m/s 744 mmHg 90%
03:00 -16°C° 0 mm 4 m/s 744 mmHg 91%
04:00 -15°C° 0 mm 5 m/s 743 mmHg 90%
05:00 -15°C° 0 mm 5 m/s 742 mmHg 89%
06:00 -15°C° 0 mm 6 m/s 741 mmHg 88%
07:00 -14°C° 0 mm 7 m/s 741 mmHg 86%
08:00 -13°C° 0 mm 8 m/s 740 mmHg 84%
09:00 -12°C° 0 mm 9 m/s 739 mmHg 82%
10:00 -11°C° 0 mm 9 m/s 738 mmHg 84%
11:00 -10°C° 0 mm 10 m/s 736 mmHg 86%
12:00 -11°C° 0 mm 11 m/s 735 mmHg 87%
13:00 -9°C° 0.5 mm 11 m/s 734 mmHg 89%
14:00 -8°C° 0.5 mm 11 m/s 732 mmHg 91%
15:00 -8°C° 0.5 mm 11 m/s 731 mmHg 92%
16:00 -9°C° 0.4 mm 11 m/s 731 mmHg 88%
17:00 -9°C° 0.4 mm 10 m/s 731 mmHg 84%
18:00 -10°C° 0.4 mm 10 m/s 731 mmHg 79%
19:00 -11°C° 0 mm 9 m/s 732 mmHg 79%
20:00 -12°C° 0 mm 8 m/s 733 mmHg 78%
21:00 -13°C° 0 mm 7 m/s 733 mmHg 77%
22:00 -13°C° 0 mm 7 m/s 733 mmHg 77%
23:00 -13°C° 0 mm 7 m/s 733 mmHg 78%

8 Março, Segunda-feira

Tempo Temperatura Precipitação Vento Pressão Humidade
00:00 -12°C° 0 mm 6 m/s 734 mmHg 79%
01:00 -13°C° 0 mm 7 m/s 733 mmHg 80%
02:00 -14°C° 0 mm 7 m/s 733 mmHg 81%
03:00 -14°C° 0 mm 7 m/s 732 mmHg 82%
04:00 -13°C° 0.2 mm 7 m/s 732 mmHg 85%
05:00 -12°C° 0.2 mm 7 m/s 731 mmHg 88%
06:00 -11°C° 0.2 mm 8 m/s 731 mmHg 91%
07:00 -12°C° 0 mm 8 m/s 731 mmHg 90%
08:00 -13°C° 0 mm 8 m/s 732 mmHg 89%
09:00 -15°C° 0 mm 8 m/s 732 mmHg 88%
10:00 -13°C° 0 mm 7 m/s 733 mmHg 87%
11:00 -12°C° 0 mm 7 m/s 734 mmHg 87%
12:00 -10°C° 0 mm 6 m/s 735 mmHg 86%
13:00 -10°C° 0 mm 6 m/s 735 mmHg 84%
14:00 -10°C° 0 mm 6 m/s 736 mmHg 82%
15:00 -11°C° 0 mm 7 m/s 736 mmHg 80%
16:00 -11°C° 0 mm 6 m/s 736 mmHg 82%
17:00 -11°C° 0 mm 6 m/s 737 mmHg 84%
18:00 -12°C° 0 mm 5 m/s 737 mmHg 86%
19:00 -12°C° 0 mm 5 m/s 738 mmHg 87%
20:00 -12°C° 0 mm 6 m/s 738 mmHg 89%
21:00 -12°C° 0 mm 6 m/s 739 mmHg 91%
22:00 -13°C° 0 mm 5 m/s 739 mmHg 92%
23:00 -14°C° 0 mm 4 m/s 740 mmHg 93%

9 Março, Terça-feira

Tempo Temperatura Precipitação Vento Pressão Humidade
00:00 -14°C° 0 mm 4 m/s 741 mmHg 94%
01:00 -15°C° 0 mm 4 m/s 741 mmHg 94%
02:00 -15°C° 0 mm 3 m/s 742 mmHg 95%
03:00 -16°C° 0 mm 3 m/s 742 mmHg 95%
04:00 -17°C° 0 mm 3 m/s 743 mmHg 96%
05:00 -17°C° 0 mm 3 m/s 743 mmHg 96%
06:00 -18°C° 0 mm 3 m/s 744 mmHg 96%
07:00 -19°C° 0 mm 4 m/s 744 mmHg 95%
08:00 -19°C° 0 mm 4 m/s 745 mmHg 94%
09:00 -19°C° 0 mm 4 m/s 745 mmHg 93%
10:00 -18°C° 0 mm 4 m/s 745 mmHg 92%
11:00 -17°C° 0 mm 4 m/s 746 mmHg 91%
12:00 -16°C° 0 mm 4 m/s 746 mmHg 89%
13:00 -16°C° 0 mm 4 m/s 746 mmHg 88%
14:00 -15°C° 0 mm 4 m/s 747 mmHg 87%
15:00 -15°C° 0 mm 4 m/s 747 mmHg 86%
16:00 -16°C° 0 mm 4 m/s 747 mmHg 88%
17:00 -15°C° 0 mm 3 m/s 747 mmHg 89%
18:00 -16°C° 0 mm 3 m/s 747 mmHg 91%
19:00 -17°C° 0 mm 3 m/s 747 mmHg 91%
20:00 -18°C° 0 mm 3 m/s 748 mmHg 91%
21:00 -18°C° 0 mm 3 m/s 748 mmHg 91%
22:00 -18°C° 0 mm 3 m/s 747 mmHg 92%
23:00 -16°C° 0 mm 2 m/s 747 mmHg 93%

10 Março, Quarta-feira

Tempo Temperatura Precipitação Vento Pressão Humidade
00:00 -16°C° 0 mm 2 m/s 747 mmHg 93%
01:00 -15°C° 0.3 mm 3 m/s 747 mmHg 94%
02:00 -14°C° 0.3 mm 3 m/s 746 mmHg 94%
03:00 -12°C° 0.3 mm 4 m/s 746 mmHg 94%
04:00 -14°C° 0.1 mm 4 m/s 746 mmHg 94%
05:00 -14°C° 0.1 mm 4 m/s 746 mmHg 94%
06:00 -14°C° 0.1 mm 4 m/s 746 mmHg 94%
07:00 -14°C° 0.1 mm 3 m/s 746 mmHg 94%
08:00 -14°C° 0.1 mm 2 m/s 746 mmHg 94%
09:00 -12°C° 0.1 mm 1 m/s 746 mmHg 94%
10:00 -12°C° 0.1 mm 1 m/s 746 mmHg 93%
11:00 -11°C° 0.1 mm 1 m/s 746 mmHg 92%
12:00 -10°C° 0.1 mm 1 m/s 747 mmHg 91%
13:00 -9°C° 0.2 mm 1 m/s 746 mmHg 92%
14:00 -10°C° 0.2 mm 2 m/s 746 mmHg 92%
15:00 -9°C° 0.2 mm 2 m/s 746 mmHg 92%
16:00 -9°C° 0.1 mm 2 m/s 746 mmHg 93%
17:00 -10°C° 0.1 mm 2 m/s 746 mmHg 93%
18:00 -10°C° 0.1 mm 2 m/s 745 mmHg 94%
19:00 -10°C° 0 mm 2 m/s 745 mmHg 94%
20:00 -12°C° 0 mm 2 m/s 746 mmHg 93%
21:00 -12°C° 0 mm 2 m/s 746 mmHg 92%
22:00 -12°C° 0 mm 2 m/s 745 mmHg 92%
23:00 -12°C° 0 mm 2 m/s 745 mmHg 92%
Mostrar mais

Necessitamos do seu Consentimento

A Meteoprog e os seus Fornecedores de Serviços podem armazenar e aceder a dados pessoais como cookies, identificadores do dispositivo ou outras tecnologias semelhantes existentes no seu dispositivo e processar estes dados para personalizar conteúdos e anúncios, assim como funcionalidades nas redes sociais e análise de tráfego.

  • Armazenar e/ou aceder a informações no seu dispositivo

    Os cookies, identificadores do dispositivo ou outras informações podem ser armazenados ou acedidos no seu dispositivo, para os fins acima indicados.

  • Anúncios e conteúdos personalizados, medição de anúncios e conteúdos, dados sobre o público-alvo e desenvolvimento de produtos

    Os anúncios e os conteúdos podem ser personalizados com base num perfil. Podem ser adicionados dados adicionais para uma maior personalização dos anúncios e dos conteúdos. A eficácia dos anúncios e dos conteúdos pode ser medida. Podem ser obtidas informações sobre o público que visualizou os anúncios e os conteúdos. Estes dados podem ser usados para desenvolver ou melhorar sistemas, softwares ou a experiência do utilizador.

Ao clicar em "Eu concordo”, permitirá o uso de cookies, identificadores do dispositivo e web beacons mencionados ou outras tecnologias semelhantes. As configurações do navegador do seu dispositivo podem ser alteradas.

Para certos fins, podem ser invocados interesses legítimos ao invés de consentimento. Pode ler mais informação sobre este assunto na nossa Política de Privacidade e Cookies.